, AK

(GMT )
Anchorage

Weather History for PANC - November, 2012

Change the Weather History Date:

Sunday, November 18, 2012

  Actual Average Record
Temperature  
Mean Temperature 18 °F 21 °F  
Max Temperature 21 °F 27 °F 47 °F (2014)
Min Temperature 14 °F 16 °F -8 °F (2015)
Degree Days  
Heating Degree Days 47    
Month to date heating degree days 760  
Since 1 July heating degree days 2803  
Cooling Degree Days 0    
Month to date cooling degree days 0  
Year to date cooling degree days 0  
Moisture  
Dew Point 2 °F    
Average Humidity 48    
Maximum Humidity 54    
Minimum Humidity 41    
Precipitation  
Precipitation 0.00 in 0.04 in 1.16 in (1964)
Month to date precipitation 0.23 0.70  
Year to date precipitation 19.65 15.01  
Snow  
Snow 0.00 in 0.40 in 9.10 in (1964)
Month to date snowfall 3.3 7.0  
Since 1 July snowfall 6.7 15.3  
Since 1 September snowfall 6.7 15.3  
Snow Depth 2.00 in    
Sea Level Pressure  
Sea Level Pressure 29.20 in    
Wind  
Wind Speed 12 mph (North)    
Max Wind Speed 16 mph    
Max Gust Speed 23 mph    
Visibility 10 miles    
Events      
T = Trace of Precipitation, MM = Missing Value Source: NWS Daily Summary

Daily Weather History Graph

Daily Weather History Graph

Search for Another Location

Airport or City:

Trip Planner

Search our weather history database for the weather conditions in past years. The results will help you decide how hot, cold, wet, or windy it might be!

Date:

Astronomy

Nov. 18, 2012 Rise Set
Actual Time 9:15 AM AKST 4:14 PM AKST
Civil Twilight 8:22 AM AKST 5:07 PM AKST
Nautical Twilight 7:27 AM AKST 6:02 PM AKST
Astronomical Twilight 6:36 AM AKST 6:53 PM AKST
Moon 1:24 PM AKST (11/18) 10:16 PM AKST (11/18)
Length of Visible Light 8h 45m
Length of Day
6h 59m
Waxing Crescent, 31% of the Moon is Illuminated
Nov 18
Waxing Crescent
Nov 20
First Quarter
Nov 28
Full
Dec 6
Last Quarter
Dec 12
New

Hourly Weather History & Observations

Time (AKST) Temp. Windchill Dew Point Humidity Pressure Visibility Wind Dir Wind Speed Gust Speed Precip Events Conditions
12:53 AM 17.1 °F 4.3 °F 3.0 °F 54% 29.08 in 10.0 mi North 11.5 mph 18.4 mph N/A   Overcast
1:53 AM 17.1 °F 4.3 °F 1.9 °F 52% 29.08 in 10.0 mi North 11.5 mph - N/A   Overcast
3:53 AM 19.0 °F 6.1 °F 1.9 °F 47% 29.08 in 10.0 mi North 12.7 mph 19.6 mph N/A   Mostly Cloudy
4:53 AM 18.0 °F 7.7 °F 3.0 °F 52% 29.10 in 10.0 mi North 8.1 mph - N/A   Mostly Cloudy
5:53 AM 19.0 °F 6.1 °F 3.9 °F 52% 29.11 in 10.0 mi North 12.7 mph 19.6 mph N/A   Scattered Clouds
6:53 AM 19.0 °F 7.5 °F 3.0 °F 50% 29.11 in 10.0 mi North 10.4 mph - N/A   Overcast
7:53 AM 19.0 °F 8.2 °F 3.0 °F 50% 29.13 in 10.0 mi North 9.2 mph - N/A   Mostly Cloudy
8:53 AM 19.0 °F 8.2 °F 1.9 °F 47% 29.14 in 10.0 mi North 9.2 mph - N/A   Mostly Cloudy
9:53 AM 19.9 °F 8.6 °F 1.9 °F 46% 29.15 in 10.0 mi North 10.4 mph 23.0 mph N/A   Mostly Cloudy
10:53 AM 19.9 °F 7.3 °F 1.0 °F 44% 29.16 in 10.0 mi North 12.7 mph - N/A   Mostly Cloudy
11:53 AM 21.0 °F 7.6 °F 1.0 °F 42% 29.18 in 10.0 mi North 15.0 mph 20.7 mph N/A   Mostly Cloudy
12:53 PM 21.0 °F 8.6 °F 1.0 °F 42% 29.20 in 10.0 mi North 12.7 mph 20.7 mph N/A   Mostly Cloudy
1:53 PM 21.0 °F 10.6 °F 3.0 °F 46% 29.20 in 10.0 mi North 9.2 mph 18.4 mph N/A   Mostly Cloudy
2:53 PM 21.0 °F 9.9 °F 1.9 °F 44% 29.21 in 10.0 mi North 10.4 mph - N/A   Scattered Clouds
3:53 PM 21.0 °F 9.9 °F 1.9 °F 44% 29.22 in 10.0 mi North 10.4 mph - N/A   Scattered Clouds
4:53 PM 19.9 °F 6.7 °F 1.9 °F 46% 29.23 in 10.0 mi North 13.8 mph - N/A   Scattered Clouds
5:53 PM 19.9 °F 7.3 °F 1.9 °F 46% 29.25 in 10.0 mi North 12.7 mph 18.4 mph N/A   Scattered Clouds
6:53 PM 19.9 °F 6.7 °F 1.0 °F 44% 29.27 in 10.0 mi North 13.8 mph 20.7 mph N/A   Scattered Clouds
7:53 PM 19.0 °F 7.5 °F 1.0 °F 46% 29.28 in 10.0 mi North 10.4 mph - N/A   Partly Cloudy
8:53 PM 18.0 °F 4.8 °F 1.9 °F 50% 29.30 in 10.0 mi North 12.7 mph - N/A   Scattered Clouds
9:53 PM 17.1 °F 2.0 °F 1.9 °F 52% 29.32 in 10.0 mi North 16.1 mph - N/A   Scattered Clouds
10:53 PM 16.0 °F 1.7 °F 1.0 °F 52% 29.33 in 10.0 mi North 13.8 mph - N/A   Scattered Clouds
11:53 PM 15.1 °F -0.1 °F 1.0 °F 54% 29.35 in 10.0 mi North 15.0 mph - N/A   Scattered Clouds